Showing default

CMS-02, 52903

Orbit data source: Space-Track

CMS-02, 52903 is a payload satellite owned by New Space India (IN) in GEO that was launched on Wed, 22 Jun 2022 UTC via an ARIANE 5ECA+ launch vehicle from the French Guiana (FRGUI). Payload-class satellites include a variety of spacecraft equipped with specific instruments for various scientific and technological missions. These include communications satellites like Starlink; space stations such as the ISS; scientific satellites like the Hubble; Earth observation satellites from companies like Planet Labs, Umbra, and HawkEye 360; GPS; miniature CubeSats for education and research; and military/defense satellites.

Not visible in the next 10 days
Identifier
52903, 2022-067A
Orbit
GEO
Country
Flag of ININ / IND
Related business
Manufacturer
ISRO SAC/Banga
Mission
Operational Commercial Communications
Bus & Motor
I3K, ISRO LAM
Mass
4,181 kg wet, 1,775 kg dry
Launch date (UTC)
Icon of a cake. It is the launch day of the satellite!2022-06-22 (4 years ago)
Launch vehicle
ARIANE 5ECA+
Launch site
French Guiana (FRGUI)
Object type
Payload
Rocket body
Debris
Shape & HBR
Box + 2 Pan, 12.5 m
Radar Cross Section
28.213 m², Large (>1 m²)

Expand to show TLE details & history
Last TLE update: 2 days ago

TLE from 2 days ago
0 CMS-02
1 52903U 22067A   26171.40849205 -.00000169  00000-0  00000+0 0  9991
2 52903   0.0494 253.6008 0001803 114.3593 130.7262  1.00271954 14645
Epoch: 2026-06-20T09:48Z
TLE epoch observation values (Epoch: 2026-06-20T09:48:13.713Z)
Latitude
-0.02744°
Longitude
83.03347°
Altitude
35,790.978 km
Speed
3.074 km/s
True Right ascension
09h 14m 51s
True Declination
0° 01' 39"
Sunlit
Object was in daylight at epoch
Visualization orbit readout
Latitude
Unknown
Longitude
Unknown
Altitude
Unknown
Speed
Unknown
Apparent Right ascension
Unknown
Apparent Declination
Unknown
Sunlit
N/A
Visualization observer readout
Local Sidereal Time
21:31:21
Azimuth
Unknown
Elevation
Unknown
Doppler factor
Unknown
Orbital elements
Apogee altitude
35,795.22 km
Perigee altitude
35,780.015 km
Semi-major axis
42,165.755 km
Eccentricity
0.00018
Inclination
0.0494°
RAAN
253.6008°
Arg. of periapsis
114.3593°
True anomaly
130.74186°
Mean anomaly
130.7262°
Eccentric anomaly
130.73403°
Mean motion
0.25067 °/min
Orbital period
1,436.15 mins
BSTAR
0
Loading maneuver chart data...
Computing Atmospheric mass density...
Loading historical data...
Loading historical data...
Loading historical data...
Loading historical data...
Loading historical data...
Loading historical data...
Loading historical data...
Other satellites on launch #67 in the year 2022 (2022-06-22 UTC)

Documentation

Showing up to 5 results
|